Location: Columbia
(38.9520°N, 92.3340°W)
Time: 18:30:39
(UTC-06:00)

Cosmos 2219 Rocket - Visible Passes

Search period start: 11 December 2017 00:00
Search period end: 21 December 2017 00:00
Orbit: 828 x 847 km, 71.0° (Epoch: 11 December)

Date Brightness Start Highest point End Pass type
(mag) Time Alt. Az. Time Alt. Az. Time Alt. Az.
17 Dec 3.5 06:41:12 10° N 06:46:29 38° ENE 06:51:43 10° SE visible
18 Dec 3.6 06:24:54 10° N 06:30:05 35° ENE 06:35:15 10° SE visible
19 Dec 3.7 06:08:36 10° N 06:13:42 33° ENE 06:18:46 10° ESE visible
20 Dec 3.8 05:52:18 10° N 05:57:18 31° ENE 06:02:16 10° ESE visible
